Content
SEND FEEDBACK

Daily
Averages
Monthly
Summary
United States of America

UNDERWOOD, NORTH DAKOTA


Home > North America > United States > North Dakota
Elevation: 2017 feet     Latitude: 47 27N     Longitude: 101 08W

WEATHER
 
SELECT A DAY
Number of Records: 208,056;   Date Range: 1/1/95 - 7/26/14
 
SHARE

PRINT THIS DATA

[ ← Previous Day ]
WEATHER ALMANAC - MARCH 4, 2014
[ Next Day → ]
[ °C ]   °F
Weather ElementAverageHighLow
Temperature8.9 °F10.9 °F (1:52 pm)6.1 °F (3:52 am)
Dewpoint3.9 °F6.1 °F (2:52 pm)1 °F (1:52 am)
Humidity80 %84 % (7:52 am)76 % (12:52 pm)
Barometer30.23 in30.31 in (9:52 pm)30.17 in (3:52 am)
Wind Speed11.4 mph15 mph (9:52 am)
Weather ElementAverage
Wind DirectionESE (113.5 °)

Weather ElementTotal
Precipitation0.02 in
Heating Degree Days56.5 (Base 65)
Averaged from 23 records on March 4, 2014
WEATHER CONDITIONS BREAKOUT
WIND DIRECTION BREAKOUT
WEATHER BY HOUR - MARCH 4, 2014
[ °C ]   °F
Local TimeTemperatureDewpointHumidityBarometerVisibilityWind DirectionWind SpeedGust SpeedPrecipitationEventsConditions
1:52 AM7.0 °F1.0 °F77 %30.19 inEast (100°)4.6 mph
2:52 AM7.0 °F1.0 °F77 %30.18 inEast (90°)8.1 mph
3:52 AM6.1 °F1.9 °F83 %30.17 inEast (80°)11.5 mph
4:52 AM6.1 °F1.9 °F83 %30.17 inEast (80°)9.2 mph
5:52 AM6.1 °F1.9 °F83 %30.17 inESE (110°)10.4 mph
6:52 AM7.0 °F1.9 °F80 %30.19 inESE (110°)8.1 mph
7:52 AM7.0 °F3.0 °F84 %30.19 inESE (110°)10.4 mph0.01 in
8:52 AM7.0 °F3.0 °F84 %30.21 inEast (90°)10.4 mph
9:52 AM8.1 °F3.0 °F80 %30.20 inEast (100°)15.0 mph
10:52 AM8.1 °F3.0 °F80 %30.22 inESE (110°)12.7 mph
11:52 AM9.0 °F3.0 °F77 %30.22 inEast (100°)13.8 mph
12:52 PM10.0 °F3.9 °F76 %30.22 inESE (120°)13.8 mph
1:52 PM10.9 °F5.0 °F77 %30.21 inESE (120°)15.0 mph
2:52 PM10.9 °F6.1 °F81 %30.22 inESE (120°)12.7 mph
3:52 PM10.9 °F6.1 °F81 %30.22 inESE (120°)12.7 mph
4:52 PM10.9 °F6.1 °F81 %30.23 inESE (120°)12.7 mph0.01 in
5:52 PM10.9 °F6.1 °F81 %30.25 inESE (120°)12.7 mph
6:52 PM10.9 °F5.0 °F77 %30.26 inESE (120°)12.7 mph
7:52 PM10.9 °F5.0 °F77 %30.29 inSE (130°)11.5 mph
8:52 PM10.0 °F5.0 °F80 %30.30 inSE (140°)12.7 mph
9:52 PM10.0 °F5.0 °F80 %30.31 inSE (140°)10.4 mph
10:52 PM10.0 °F5.0 °F80 %30.29 inSE (140°)11.5 mph
11:52 PM10.9 °F6.1 °F81 %30.29 inSE (140°)10.4 mph
Hourly data recorded from KN60, located miles away from Underwood, North Dakota







STORIES FROM OUR PARTNERS